Location: Bacharowice
(49.9333°N, 19.5833°E)
Time: 03:44:04
(UTC+00:00)

BREEZE-M DEB (TANK) - Pass Details

Date: 11 May 2021
Orbit: 320 x 13078 km, 49.7° (Epoch: 21 June)

Event Time Altitude Azimuth Distance (km) Brightness Sun altitude
Rises 22:38:16 0° 293° (WNW) 8,564 9.2 -21.9°
Reaches altitude 10° 22:46:23 10° 290° (WNW) 5,583 8.1 -21.9°
Maximum altitude 22:57:30 43° 224° (SW) 1,349 4.4 -21.8°
Enters shadow 22:58:07 42° 207° (SSW) 1,280 4.2 -21.8°
